This is the latest recevied weather packets stored in our database for station/object KD7CIH. If no packets are shown the sender has not sent any weather packets the latest 10 day(s).
| Time | Temp. | Humidity | Pressure | Rain* | Wind** | Luminosity | Snow |
|---|---|---|---|---|---|---|---|
| 1777257515 | 3.33° C | 91% | 999.6 hPa | 0 mm | - | - | - |
| 1777257215 | 3.33° C | 91% | 999.4 hPa | 0 mm | - | - | - |
| 1777256916 | 3.33° C | 91% | 999.3 hPa | 0 mm | - | - | - |
| 1777256615 | 3.33° C | 90% | 999.1 hPa | 0 mm | - | - | - |
| 1777256314 | 3.33° C | 90% | 999.1 hPa | 0.25 mm | - | - | - |
| 1777256014 | 3.33° C | 90% | 999 hPa | 0.25 mm | - | - | - |
| 1777255716 | 3.33° C | 90% | 998.8 hPa | 0.51 mm | - | - | - |
| 1777255541 | 3.33° C | 89% | 998.8 hPa | 0.76 mm | - | - | - |
| 1777255116 | 3.33° C | 89% | 998.8 hPa | 0.76 mm | - | - | - |
| 1777254818 | 3.33° C | 89% | 998.8 hPa | 0.76 mm | - | - | - |
| 1777254515 | 3.33° C | 89% | 998.8 hPa | 0.76 mm | - | - | - |
| 1777254214 | 3.33° C | 88% | 998.7 hPa | 1.02 mm | - | - | - |
| 1777253914 | 3.33° C | 88% | 998.8 hPa | 1.27 mm | - | - | - |
| 1777253616 | 3.33° C | 87% | 998.9 hPa | 1.78 mm | - | - | - |
| 1777253314 | 3.33° C | 87% | 998.8 hPa | 1.78 mm | - | - | - |
| 1777253016 | 3.33° C | 87% | 998.9 hPa | 1.78 mm | - | - | - |
| 1777252716 | 3.89° C | 88% | 998.9 hPa | 1.52 mm | - | - | - |
| 1777252416 | 3.89° C | 89% | 998.9 hPa | 1.52 mm | - | - | - |
| 1777252114 | 3.89° C | 89% | 998.9 hPa | 1.52 mm | - | - | - |
| 1777251814 | 3.89° C | 88% | 998.7 hPa | 1.27 mm | - | - | - |
| 1777251514 | 3.89° C | 88% | 998.7 hPa | 1.52 mm | - | - | - |
| 1777251216 | 3.89° C | 87% | 998.7 hPa | 1.78 mm | - | - | - |
| 1777250914 | 3.89° C | 86% | 998.5 hPa | 2.03 mm | - | - | - |
| 1777250615 | 3.89° C | 86% | 998.5 hPa | 1.78 mm | - | - | - |
| 1777250315 | 3.89° C | 86% | 998.5 hPa | 1.52 mm | - | - | - |
* Rain latest hour (hover to see other rain measurements)
** Current wind speed in m/s (hover to see current wind gust speed)